Location: F?ge?el
(45.8833°N, 22.5833°E)
Time: 11:47:16
(UTC+00:00)

Helios 1A Rocket - Pass Details

Date: 17 November 2025
Orbit: 439 x 451 km, 98.3° (Epoch: 11 December)

Event Time Altitude Azimuth Distance (km) Brightness Sun altitude
Exits shadow 16:15:35 24° 96° (E) 965 3.5 -13.8°
Maximum altitude 16:15:37 24° 97° (E) 965 3.5 -13.8°
Drops below altitude 10° 16:18:29 10° 154° (SSE) 1,595 5.0 -14.3°
Sets 16:20:42 0° 168° (SSE) 2,440 6.1 -14.6°
